{"data":{"norad_id":65860,"intl_designator":"2025-223G","name":"STARLINK-35303","alt_names":[],"object_type":"PAYLOAD","status":"ACTIVE","operator":null,"country":"US","launch_date":"2025-10-03","launch_site_code":"AFWTR","launch_vehicle":null,"mission":null,"orbit_class":"UNKNOWN","rcs_meters":null,"size_class":null,"mass_kg":null,"dimensions":null,"purposes":["comms"],"wikipedia_slug":null,"has_3d_model":false,"image_url":null,"decayed_at":null,"tle_current":{"epoch":"2026-09-20T23:02:43.779552Z","epoch_age_seconds":66399,"freshness":"FRESH","line1":"1 65860U 25223G   26263.96022893  .00021180  00000+0  63602-3 0  9998","line2":"2 65860  53.1603 103.5364 0000564  74.4763 285.6302 15.34409821 54151","mean_motion":15.34409821,"eccentricity":5.64e-5,"inclination_deg":53.1603,"raan_deg":103.5364,"arg_perigee_deg":74.4763,"mean_anomaly_deg":285.6302,"bstar":0.00063602,"rev_number":5415,"period_min":93.847157408151,"perigee_km":462.28822853788,"apogee_km":463.05987202435,"semimajor_km":6840.8110502811,"source":"CELESTRAK","updated_at":"2026-09-21T09:00:35.726365Z"}}}